When you browse on this site, cookies collect data to enhance your experience and personalize the content and advertising you see.
Visit our Privacy Policy to learn more. By continuing to use the site, you agree to this use of cookies and data.
  • In Hungary
  • List of Countries
  • For 7 days
  • Water Temperature
  • Satellite Maps
  • Weather Map
  • News
  • Weather Widgets
  • user-avatar
    Login

    Hourly Weather Corfu

    Today, 19 November, Monday

    Time Temperature Precipitation Wind Pressure Humidity
    00:00 +10°C° 0 mm 3 mps 757 mmHg 87%
    01:00 +10°C° 0 mm 3 mps 757 mmHg 86%
    02:00 +10°C° 0 mm 3 mps 757 mmHg 87%
    03:00 +10°C° 0 mm 2 mps 757 mmHg 87%
    04:00 +10°C° 0 mm 2 mps 758 mmHg 87%
    05:00 +10°C° 0 mm 2 mps 758 mmHg 87%
    06:00 +10°C° 0 mm 2 mps 758 mmHg 88%
    07:00 +11°C° 0 mm 1 mps 758 mmHg 88%
    08:00 +12°C° 0 mm 2 mps 759 mmHg 83%
    09:00 +14°C° 0 mm 2 mps 759 mmHg 77%
    10:00 +16°C° 0 mm 3 mps 759 mmHg 72%
    11:00 +16°C° 0 mm 3 mps 759 mmHg 70%
    12:00 +17°C° 0 mm 4 mps 759 mmHg 67%
    13:00 +17°C° 0 mm 5 mps 759 mmHg 65%
    14:00 +16°C° 0.1 mm 5 mps 759 mmHg 69%
    15:00 +15°C° 0.1 mm 6 mps 759 mmHg 74%
    16:00 +15°C° 0.1 mm 7 mps 759 mmHg 79%
    17:00 +15°C° 0.4 mm 7 mps 759 mmHg 80%
    18:00 +14°C° 0.4 mm 7 mps 759 mmHg 82%
    19:00 +13°C° 0.4 mm 8 mps 759 mmHg 83%
    20:00 +13°C° 1.4 mm 8 mps 759 mmHg 85%
    21:00 +13°C° 1.4 mm 8 mps 759 mmHg 87%
    22:00 +13°C° 1.4 mm 9 mps 759 mmHg 89%
    23:00 +13°C° 1.1 mm 9 mps 759 mmHg 90%

    Tomorrow, 20 November, Tuesday

    Time Temperature Precipitation Wind Pressure Humidity
    00:00 +13°C° 1.1 mm 9 mps 759 mmHg 90%
    01:00 +13°C° 1.1 mm 10 mps 759 mmHg 91%
    02:00 +13°C° 1.7 mm 10 mps 759 mmHg 90%
    03:00 +13°C° 1.7 mm 10 mps 759 mmHg 89%
    04:00 +13°C° 1.7 mm 10 mps 759 mmHg 89%
    05:00 +13°C° 2.2 mm 10 mps 759 mmHg 89%
    06:00 +13°C° 2.2 mm 10 mps 759 mmHg 89%
    07:00 +13°C° 2.2 mm 10 mps 759 mmHg 90%
    08:00 +14°C° 2.3 mm 10 mps 759 mmHg 89%
    09:00 +14°C° 2.3 mm 10 mps 759 mmHg 89%
    10:00 +16°C° 2.3 mm 10 mps 759 mmHg 88%
    11:00 +16°C° 2.3 mm 10 mps 759 mmHg 89%
    12:00 +16°C° 2.3 mm 10 mps 758 mmHg 89%
    13:00 +16°C° 2.3 mm 10 mps 758 mmHg 90%
    14:00 +16°C° 1.9 mm 9 mps 758 mmHg 91%
    15:00 +16°C° 1.9 mm 9 mps 758 mmHg 92%
    16:00 +16°C° 1.9 mm 8 mps 758 mmHg 93%
    17:00 +16°C° 1.8 mm 8 mps 758 mmHg 93%
    18:00 +16°C° 1.8 mm 8 mps 758 mmHg 93%
    19:00 +16°C° 1.8 mm 8 mps 758 mmHg 93%
    20:00 +15°C° 1.2 mm 8 mps 757 mmHg 92%
    21:00 +15°C° 1.2 mm 7 mps 757 mmHg 91%
    22:00 +15°C° 1.2 mm 7 mps 757 mmHg 90%
    23:00 +15°C° 2.7 mm 7 mps 757 mmHg 91%

    Day after tomorrow, 21 November, Wednesday

    Time Temperature Precipitation Wind Pressure Humidity
    00:00 +15°C° 2.7 mm 7 mps 757 mmHg 92%
    01:00 +15°C° 2.7 mm 6 mps 756 mmHg 93%
    02:00 +15°C° 2.3 mm 6 mps 756 mmHg 94%
    03:00 +15°C° 2.3 mm 6 mps 756 mmHg 94%
    04:00 +15°C° 2.3 mm 5 mps 756 mmHg 94%
    05:00 +15°C° 0.8 mm 5 mps 756 mmHg 94%
    06:00 +14°C° 0.8 mm 5 mps 756 mmHg 94%
    07:00 +14°C° 0.8 mm 4 mps 757 mmHg 94%
    08:00 +15°C° 0.2 mm 4 mps 757 mmHg 91%
    09:00 +16°C° 0.2 mm 3 mps 758 mmHg 88%
    10:00 +17°C° 0.2 mm 2 mps 758 mmHg 85%
    11:00 +17°C° 0.1 mm 2 mps 758 mmHg 81%
    12:00 +18°C° 0.1 mm 2 mps 758 mmHg 77%
    13:00 +19°C° 0.1 mm 1 mps 758 mmHg 73%
    14:00 +19°C° 0 mm 1 mps 758 mmHg 76%
    15:00 +17°C° 0 mm 2 mps 758 mmHg 79%
    16:00 +17°C° 0 mm 2 mps 759 mmHg 82%
    17:00 +16°C° 0.1 mm 2 mps 759 mmHg 84%
    18:00 +16°C° 0.1 mm 3 mps 759 mmHg 86%
    19:00 +16°C° 0.1 mm 3 mps 760 mmHg 88%
    20:00 +16°C° 0.2 mm 3 mps 760 mmHg 88%
    21:00 +15°C° 0.2 mm 4 mps 760 mmHg 89%
    22:00 +15°C° 0.2 mm 4 mps 761 mmHg 90%
    23:00 +15°C° 0.2 mm 4 mps 761 mmHg 90%

    22 November, Thursday

    Time Temperature Precipitation Wind Pressure Humidity
    00:00 +15°C° 0.2 mm 4 mps 761 mmHg 91%
    01:00 +15°C° 0.2 mm 4 mps 761 mmHg 91%
    02:00 +15°C° 0.1 mm 4 mps 761 mmHg 91%
    03:00 +15°C° 0.1 mm 4 mps 761 mmHg 91%
    04:00 +14°C° 0.1 mm 4 mps 762 mmHg 91%
    05:00 +14°C° 0 mm 4 mps 762 mmHg 91%
    06:00 +14°C° 0 mm 4 mps 762 mmHg 91%
    07:00 +14°C° 0 mm 4 mps 763 mmHg 91%
    08:00 +15°C° 0 mm 4 mps 763 mmHg 87%
    09:00 +17°C° 0 mm 4 mps 763 mmHg 82%
    10:00 +18°C° 0 mm 4 mps 764 mmHg 77%
    11:00 +19°C° 0 mm 4 mps 764 mmHg 75%
    12:00 +19°C° 0 mm 5 mps 763 mmHg 73%
    13:00 +19°C° 0 mm 5 mps 763 mmHg 71%
    14:00 +19°C° 0 mm 5 mps 763 mmHg 73%
    15:00 +17°C° 0 mm 5 mps 764 mmHg 76%
    16:00 +16°C° 0 mm 5 mps 764 mmHg 78%
    17:00 +17°C° 0 mm 4 mps 764 mmHg 79%
    18:00 +15°C° 0 mm 4 mps 765 mmHg 81%
    19:00 +14°C° 0 mm 4 mps 765 mmHg 82%
    20:00 +14°C° 0 mm 4 mps 765 mmHg 82%
    21:00 +14°C° 0 mm 4 mps 766 mmHg 82%
    22:00 +13°C° 0 mm 4 mps 766 mmHg 81%
    23:00 +13°C° 0 mm 4 mps 766 mmHg 81%

    23 November, Friday

    Time Temperature Precipitation Wind Pressure Humidity
    00:00 +13°C° 0 mm 4 mps 766 mmHg 81%
    01:00 +12°C° 0 mm 3 mps 766 mmHg 81%
    02:00 +12°C° 0 mm 3 mps 766 mmHg 81%
    03:00 +12°C° 0 mm 3 mps 767 mmHg 81%
    04:00 +12°C° 0 mm 3 mps 767 mmHg 80%
    05:00 +12°C° 0 mm 3 mps 767 mmHg 80%
    06:00 +12°C° 0 mm 3 mps 767 mmHg 80%
    07:00 +12°C° 0 mm 3 mps 767 mmHg 80%
    08:00 +13°C° 0 mm 3 mps 768 mmHg 74%
    09:00 +16°C° 0 mm 3 mps 768 mmHg 67%
    10:00 +18°C° 0 mm 2 mps 768 mmHg 61%
    11:00 +18°C° 0 mm 2 mps 768 mmHg 58%
    12:00 +19°C° 0 mm 2 mps 768 mmHg 55%
    13:00 +20°C° 0 mm 2 mps 768 mmHg 52%
    14:00 +19°C° 0 mm 2 mps 768 mmHg 56%
    15:00 +18°C° 0 mm 3 mps 768 mmHg 61%
    16:00 +17°C° 0 mm 3 mps 768 mmHg 65%
    17:00 +16°C° 0 mm 3 mps 768 mmHg 67%
    18:00 +14°C° 0 mm 3 mps 768 mmHg 70%
    19:00 +14°C° 0 mm 3 mps 768 mmHg 72%
    20:00 +14°C° 0 mm 2 mps 768 mmHg 73%
    21:00 +14°C° 0 mm 2 mps 768 mmHg 75%
    22:00 +14°C° 0 mm 2 mps 769 mmHg 76%
    23:00 +13°C° 0 mm 2 mps 769 mmHg 77%

    24 November, Saturday

    Time Temperature Precipitation Wind Pressure Humidity
    00:00 +13°C° 0 mm 2 mps 768 mmHg 77%
    01:00 +13°C° 0 mm 2 mps 768 mmHg 78%
    02:00 +12°C° 0 mm 2 mps 768 mmHg 78%
    03:00 +12°C° 0 mm 2 mps 768 mmHg 78%
    04:00 +12°C° 0 mm 2 mps 768 mmHg 78%
    05:00 +11°C° 0 mm 3 mps 768 mmHg 77%
    06:00 +11°C° 0 mm 3 mps 768 mmHg 76%
    07:00 +11°C° 0 mm 3 mps 768 mmHg 75%
    08:00 +12°C° 0 mm 3 mps 768 mmHg 70%
    09:00 +14°C° 0 mm 3 mps 768 mmHg 65%
    10:00 +17°C° 0 mm 3 mps 768 mmHg 60%
    11:00 +17°C° 0 mm 3 mps 767 mmHg 60%
    12:00 +18°C° 0 mm 3 mps 767 mmHg 60%
    13:00 +18°C° 0 mm 3 mps 766 mmHg 61%
    14:00 +17°C° 0 mm 3 mps 766 mmHg 66%
    15:00 +17°C° 0 mm 3 mps 766 mmHg 72%
    16:00 +16°C° 0 mm 3 mps 766 mmHg 78%
    17:00 +16°C° 0 mm 3 mps 766 mmHg 80%
    18:00 +14°C° 0 mm 4 mps 766 mmHg 82%
    19:00 +14°C° 0 mm 4 mps 766 mmHg 84%
    20:00 +14°C° 0 mm 4 mps 765 mmHg 86%
    21:00 +13°C° 0 mm 5 mps 765 mmHg 88%
    22:00 +13°C° 0 mm 5 mps 765 mmHg 89%
    23:00 +13°C° 0.3 mm 5 mps 765 mmHg 89%
    Show more